Weather in Jablonec nad Nisou

Czech Republic     50°43′16″N   15°10′13″E
temp.,
°C
wind,
m/s
gust,
m/s
humid.,
%
clouds,
%
prec.,
mm/h
press.,
hPa
HPBL,
m
8 august, mon
mon823:00+12ene2364100 0.0 102345
02:00+11ne1165100 0.0 102312
05:00+10ne2167100 0.0 102315
08:00+15ne13565 0.0 1023305
11:00+20ene23370 0.0 10231484
14:00+21ne32343 0.0 10231840
17:00+21nne43351 0.0 10221877
20:00+16ne25601 0.0 102483
9 august, tue
tue923:00+13ene22665 0.0 102528
02:00+12ene22660 0.0 102615
05:00+12ne11674 0.0 102513
08:00+17nne12533 0.0 1026212
11:00+21ene45399 0.0 10262057
14:00+22ne443625 0.0 10252389
17:00+20ene354897 0.0 1026760
20:00+16ene22625 0.0 102619
10 august, wed
wed1023:00+14ene22668 0.0 102715
02:00+13e21698 0.0 102713
05:00+12ene117210 0.0 102711
08:00+17nne1157100 0.0 1027126
11:00+21ene244017 0.0 10271956
14:00+23ne33352 0.0 10252214
17:00+23ne333586 0.0 10242082
20:00+17ne115895 0.0 102412
11 august, thu
thu1123:00+15e225852 0.0 102516
02:00+14e116169 0.0 102512
05:00+14ne116293 0.0 102411
08:00+18ne145098 0.0 1024292
11:00+21ese34350 0.0 10231770
14:00+23e45333 0.0 10232355
17:00+23ene463316 0.0 10212498
20:00+17ene25545 0.0 102297
12 august, fri
fri1223:00+14e2262100 0.0 102325
02:00+14ene226717 0.0 102219
05:00+14ne226440 0.0 102145
08:00+17ene386411 0.0 1021576
11:00+21e365136 0.0 10201743
14:00+24ese453835 0.0 10182446
17:00+22ese3646100 0.0 1018977
20:00+18ene226194 0.0 101843